LIC0243 LEBA-LEVD

Flight info

Callsign LIC0243
Flight time 0h 48m
Altitude 32000
Route HIJ DCT BBI DCT NUB
Aircraft B738/M-SBDGIJ1LRWY/SB1

Departure

Time 2026-05-05 17:32
Airport Córdoba Airport (LEBA)

Arrival

Time 2026-05-05 18:20
Airport Valladolid Airport (LEVD)
Time Latitude Longitude Altitude Speed Heading
2026-05-05 16:59 37.84518 -4.84425 317 ft 0 kts 28°
2026-05-05 17:24 37.84520 -4.84425 317 ft 2 kts 11°
2026-05-05 17:24 37.84561 -4.84410 317 ft 4 kts 115°
2026-05-05 17:24 37.84534 -4.84416 317 ft 4 kts 200°
2026-05-05 17:25 37.84512 -4.84426 317 ft 2 kts 200°
2026-05-05 17:25 37.84506 -4.84429 317 ft 2 kts 200°
2026-05-05 17:25 37.84495 -4.84529 316 ft 9 kts 301°
2026-05-05 17:25 37.84497 -4.84532 316 ft 0 kts 301°
2026-05-05 17:26 37.84502 -4.84544 316 ft 8 kts 297°
2026-05-05 17:27 37.84578 -4.84615 315 ft 16 kts 11°
2026-05-05 17:27 37.84680 -4.84555 315 ft 16 kts 28°
2026-05-05 17:27 37.84779 -4.84485 316 ft 16 kts 30°
2026-05-05 17:27 37.84879 -4.84414 317 ft 16 kts 29°
2026-05-05 17:28 37.84978 -4.84345 318 ft 15 kts 29°
2026-05-05 17:28 37.85070 -4.84279 320 ft 14 kts 30°
2026-05-05 17:28 37.85132 -4.84190 322 ft 13 kts 59°
2026-05-05 17:28 37.85183 -4.84193 322 ft 10 kts 253°
2026-05-05 17:29 37.85123 -4.84245 321 ft 11 kts 208°
2026-05-05 17:29 37.85086 -4.84270 321 ft 0 kts 208°
2026-05-05 17:30 37.85085 -4.84270 321 ft 0 kts 208°
2026-05-05 17:30 37.85081 -4.84273 321 ft 0 kts 208°
2026-05-05 17:31 37.85077 -4.84276 321 ft 3 kts 208°
2026-05-05 17:31 37.84857 -4.84426 317 ft 76 kts 207°
2026-05-05 17:31 37.84174 -4.84900 313 ft 146 kts 210°
2026-05-05 17:31 37.83190 -4.85567 785 ft 165 kts 207°
2026-05-05 17:32 37.82194 -4.86205 1644 ft 163 kts 210°
2026-05-05 17:32 37.81176 -4.86923 2161 ft 177 kts 211°
2026-05-05 17:32 37.80096 -4.87742 2610 ft 188 kts 226°
2026-05-05 17:32 37.79438 -4.89157 3138 ft 190 kts 263°
2026-05-05 17:33 37.79596 -4.90793 3656 ft 194 kts 297°
2026-05-05 17:33 37.80493 -4.92055 4101 ft 205 kts 330°
2026-05-05 17:33 37.81908 -4.92601 4542 ft 220 kts 349°
2026-05-05 17:33 37.83473 -4.92905 4982 ft 234 kts 349°
2026-05-05 17:34 37.85109 -4.93263 5481 ft 246 kts 348°
2026-05-05 17:34 37.86812 -4.93682 6185 ft 253 kts 348°
2026-05-05 17:34 37.88554 -4.94125 6865 ft 262 kts 347°
2026-05-05 17:34 37.90352 -4.94584 7533 ft 270 kts 347°
2026-05-05 17:35 37.92219 -4.95057 8295 ft 276 kts 347°
2026-05-05 17:35 37.94098 -4.95532 9074 ft 279 kts 347°
2026-05-05 17:35 37.95989 -4.96009 9843 ft 282 kts 346°
2026-05-05 17:35 37.97936 -4.96501 10550 ft 289 kts 346°
2026-05-05 17:36 37.99949 -4.97013 10995 ft 304 kts 345°
2026-05-05 17:36 38.02060 -4.97550 11476 ft 318 kts 345°
2026-05-05 17:36 38.04296 -4.98119 11979 ft 332 kts 345°
2026-05-05 17:36 38.06579 -4.98696 12655 ft 339 kts 345°
2026-05-05 17:37 38.08880 -4.99276 13469 ft 342 kts 344°
2026-05-05 17:37 38.10460 -4.99675 14006 ft 345 kts 344°
2026-05-05 17:37 38.13615 -5.00474 15007 ft 352 kts 344°
2026-05-05 17:37 38.16023 -5.01086 15842 ft 354 kts 344°
2026-05-05 17:38 38.18457 -5.01704 16587 ft 359 kts 344°
2026-05-05 17:38 38.20887 -5.02323 17280 ft 364 kts 344°
2026-05-05 17:38 38.23381 -5.02958 18046 ft 367 kts 344°
2026-05-05 17:38 38.25884 -5.03595 18772 ft 371 kts 343°
2026-05-05 17:39 38.28424 -5.04242 19443 ft 375 kts 343°
2026-05-05 17:39 38.30996 -5.04899 20115 ft 379 kts 343°
2026-05-05 17:39 38.33602 -5.05564 20836 ft 382 kts 343°
2026-05-05 17:39 38.36185 -5.06223 21498 ft 385 kts 343°
2026-05-05 17:40 38.38820 -5.06896 22133 ft 388 kts 343°
2026-05-05 17:40 38.41466 -5.07573 22762 ft 391 kts 343°
2026-05-05 17:40 38.44165 -5.08263 23396 ft 394 kts 343°
2026-05-05 17:40 38.46870 -5.08956 23945 ft 399 kts 343°
2026-05-05 17:41 38.49575 -5.09649 24520 ft 402 kts 342°
2026-05-05 17:41 38.52345 -5.10280 25094 ft 406 kts 345°
2026-05-05 17:41 38.55145 -5.10754 25589 ft 412 kts 347°
2026-05-05 17:41 38.58030 -5.11150 26131 ft 415 kts 347°
2026-05-05 17:42 38.60887 -5.11511 26613 ft 419 kts 348°
2026-05-05 17:42 38.63821 -5.11875 27106 ft 422 kts 347°
2026-05-05 17:42 38.66732 -5.12243 27550 ft 426 kts 347°
2026-05-05 17:42 38.69719 -5.12628 28040 ft 429 kts 347°
2026-05-05 17:43 38.72681 -5.13014 28788 ft 425 kts 347°
2026-05-05 17:43 38.75570 -5.13393 29547 ft 420 kts 347°
2026-05-05 17:43 38.78481 -5.13781 30175 ft 418 kts 346°
2026-05-05 17:43 38.81364 -5.14174 30676 ft 419 kts 346°
2026-05-05 17:44 38.84293 -5.14576 31152 ft 420 kts 346°
2026-05-05 17:44 38.87170 -5.14974 31700 ft 418 kts 345°
2026-05-05 17:44 38.90062 -5.15374 31960 ft 422 kts 345°
2026-05-05 17:45 38.95900 -5.16188 31962 ft 417 kts 345°
2026-05-05 17:45 39.01692 -5.16990 31958 ft 417 kts 345°
2026-05-05 17:46 39.07451 -5.17794 31957 ft 415 kts 345°
2026-05-05 17:46 39.13249 -5.18606 31954 ft 416 kts 345°
2026-05-05 17:47 39.18996 -5.19411 31959 ft 416 kts 345°
2026-05-05 17:47 39.24753 -5.20217 31948 ft 415 kts 345°
2026-05-05 17:48 39.30480 -5.21020 31950 ft 413 kts 345°
2026-05-05 17:48 39.36212 -5.21827 31957 ft 415 kts 345°
2026-05-05 17:49 39.41943 -5.22633 31954 ft 414 kts 345°
2026-05-05 17:49 39.47680 -5.23442 31959 ft 412 kts 346°
2026-05-05 17:50 39.53370 -5.24244 31956 ft 412 kts 346°
2026-05-05 17:50 39.59077 -5.25052 31954 ft 412 kts 346°
2026-05-05 17:51 39.64764 -5.25890 31948 ft 410 kts 345°
2026-05-05 17:51 39.70454 -5.26749 31945 ft 410 kts 345°
2026-05-05 17:52 39.76128 -5.27584 31942 ft 411 kts 345°
2026-05-05 17:52 39.81796 -5.28398 31941 ft 409 kts 345°
2026-05-05 17:53 39.87493 -5.29208 31937 ft 408 kts 346°
2026-05-05 17:53 39.93127 -5.30007 31938 ft 408 kts 346°
2026-05-05 17:54 39.98774 -5.30812 31941 ft 409 kts 346°
2026-05-05 17:54 40.04426 -5.31618 31936 ft 408 kts 346°
2026-05-05 17:55 40.10059 -5.32419 31960 ft 407 kts 346°
2026-05-05 17:55 40.15706 -5.33226 31953 ft 406 kts 346°
2026-05-05 17:56 40.21347 -5.34033 31953 ft 407 kts 346°
2026-05-05 17:56 40.26943 -5.34834 31941 ft 404 kts 346°
2026-05-05 17:57 40.32562 -5.35640 31952 ft 404 kts 346°
2026-05-05 17:57 40.38155 -5.36446 31952 ft 405 kts 346°
2026-05-05 17:57 40.40943 -5.36846 31810 ft 402 kts 346°
2026-05-05 17:58 40.43682 -5.37234 31418 ft 396 kts 346°
2026-05-05 17:58 40.46399 -5.37618 31072 ft 388 kts 346°
2026-05-05 17:58 40.49076 -5.37997 30701 ft 382 kts 345°
2026-05-05 17:58 40.51711 -5.38380 30252 ft 385 kts 345°
2026-05-05 17:59 40.54382 -5.38775 29770 ft 386 kts 345°
2026-05-05 17:59 40.57048 -5.39164 29302 ft 381 kts 345°
2026-05-05 17:59 40.59640 -5.39537 28855 ft 376 kts 345°
2026-05-05 17:59 40.62239 -5.39910 28391 ft 371 kts 345°
2026-05-05 18:00 40.64794 -5.40278 27941 ft 366 kts 345°
2026-05-05 18:00 40.67283 -5.40638 27496 ft 361 kts 345°
2026-05-05 18:00 40.69799 -5.41003 27041 ft 356 kts 345°
2026-05-05 18:00 40.72245 -5.41359 26609 ft 352 kts 345°
2026-05-05 18:01 40.74655 -5.41710 26168 ft 347 kts 345°
2026-05-05 18:01 40.77061 -5.42064 25730 ft 349 kts 345°
2026-05-05 18:01 40.79464 -5.42422 25292 ft 351 kts 345°
2026-05-05 18:01 40.81866 -5.42775 24846 ft 346 kts 345°
2026-05-05 18:02 40.84254 -5.43120 24406 ft 341 kts 346°
2026-05-05 18:02 40.86601 -5.43459 23968 ft 337 kts 346°
2026-05-05 18:02 40.88904 -5.43794 23538 ft 332 kts 346°
2026-05-05 18:02 40.91190 -5.44127 23124 ft 327 kts 346°
2026-05-05 18:03 40.93444 -5.44459 22716 ft 329 kts 346°
2026-05-05 18:03 40.95734 -5.44806 22286 ft 335 kts 346°
2026-05-05 18:03 40.98071 -5.45096 21828 ft 335 kts 351°
2026-05-05 18:03 41.00397 -5.45009 21388 ft 339 kts
2026-05-05 18:04 41.02703 -5.44241 20944 ft 345 kts 14°
2026-05-05 18:04 41.04868 -5.42879 20517 ft 348 kts 23°
2026-05-05 18:04 41.06940 -5.41222 20061 ft 347 kts 27°
2026-05-05 18:04 41.08942 -5.39493 19631 ft 344 kts 28°
2026-05-05 18:05 41.10944 -5.37722 19185 ft 342 kts 29°
2026-05-05 18:05 41.12925 -5.35962 18733 ft 339 kts 29°
2026-05-05 18:05 41.14860 -5.34246 18291 ft 336 kts 30°
2026-05-05 18:05 41.16803 -5.32529 17831 ft 334 kts 30°
2026-05-05 18:06 41.18710 -5.30851 17391 ft 331 kts 30°
2026-05-05 18:06 41.19355 -5.30284 17243 ft 330 kts 30°
2026-05-05 18:06 41.22516 -5.27514 16516 ft 325 kts 30°
2026-05-05 18:06 41.24389 -5.25874 16091 ft 322 kts 30°
2026-05-05 18:07 41.26247 -5.24245 15665 ft 319 kts 30°
2026-05-05 18:07 41.28104 -5.22618 15239 ft 317 kts 30°
2026-05-05 18:07 41.29927 -5.21018 14823 ft 318 kts 30°
2026-05-05 18:07 41.31781 -5.19394 14389 ft 321 kts 30°
2026-05-05 18:08 41.33634 -5.17767 13960 ft 318 kts 30°
2026-05-05 18:08 41.35480 -5.16143 13531 ft 316 kts 30°
2026-05-05 18:08 41.37300 -5.14540 13113 ft 313 kts 31°
2026-05-05 18:08 41.39106 -5.12948 12695 ft 311 kts 31°
2026-05-05 18:09 41.40891 -5.11376 12281 ft 309 kts 31°
2026-05-05 18:09 41.42693 -5.09787 11860 ft 306 kts 31°
2026-05-05 18:09 41.44455 -5.08232 11451 ft 304 kts 31°
2026-05-05 18:09 41.46214 -5.06682 11047 ft 302 kts 31°
2026-05-05 18:10 41.47954 -5.05151 10639 ft 300 kts 31°
2026-05-05 18:10 41.49690 -5.03621 10274 ft 296 kts 31°
2026-05-05 18:10 41.51381 -5.02126 10088 ft 287 kts 31°
2026-05-05 18:10 41.53008 -5.00679 9929 ft 277 kts 31°
2026-05-05 18:11 41.54596 -4.99266 9569 ft 276 kts 31°
2026-05-05 18:11 41.56190 -4.97852 9211 ft 275 kts 31°
2026-05-05 18:11 41.57790 -4.96435 8852 ft 273 kts 31°
2026-05-05 18:11 41.59355 -4.95047 8514 ft 272 kts 31°
2026-05-05 18:12 41.60925 -4.93654 8170 ft 270 kts 31°
2026-05-05 18:12 41.62502 -4.92253 7816 ft 269 kts 31°
2026-05-05 18:12 41.64054 -4.90873 7481 ft 268 kts 31°
2026-05-05 18:12 41.65585 -4.89513 7143 ft 267 kts 31°
2026-05-05 18:13 41.67139 -4.88134 6798 ft 266 kts 31°
2026-05-05 18:13 41.68670 -4.86773 6460 ft 264 kts 31°
2026-05-05 18:13 41.70192 -4.85402 6114 ft 264 kts 34°
2026-05-05 18:13 41.71591 -4.83841 5840 ft 262 kts 41°
2026-05-05 18:14 41.72908 -4.82111 5627 ft 266 kts 43°
2026-05-05 18:14 41.74187 -4.80363 5461 ft 262 kts 43°
2026-05-05 18:14 41.75540 -4.78827 5311 ft 249 kts 25°
2026-05-05 18:14 41.77153 -4.78223 5198 ft 234 kts
2026-05-05 18:15 41.78749 -4.78259 5065 ft 225 kts 354°
2026-05-05 18:15 41.80284 -4.78401 4941 ft 216 kts 353°
2026-05-05 18:15 41.81730 -4.78536 4915 ft 203 kts 353°
2026-05-05 18:15 41.83114 -4.78659 4784 ft 195 kts 353°
2026-05-05 18:16 41.84432 -4.78362 4594 ft 194 kts 29°
2026-05-05 18:16 41.85219 -4.76970 4422 ft 188 kts 79°
2026-05-05 18:16 41.84990 -4.75358 4246 ft 175 kts 134°
2026-05-05 18:16 41.83978 -4.74609 4372 ft 174 kts 173°
2026-05-05 18:17 41.82746 -4.74443 4336 ft 177 kts 182°
2026-05-05 18:17 41.81526 -4.74413 4334 ft 175 kts 181°
2026-05-05 18:17 41.80297 -4.74407 4332 ft 175 kts 186°
2026-05-05 18:17 41.79115 -4.74569 4326 ft 168 kts 193°
2026-05-05 18:18 41.78071 -4.75182 4340 ft 163 kts 223°
2026-05-05 18:18 41.77278 -4.76253 4335 ft 164 kts 227°
2026-05-05 18:18 41.76485 -4.77284 4126 ft 155 kts 226°
2026-05-05 18:18 41.75750 -4.78273 3935 ft 147 kts 229°
2026-05-05 18:19 41.75036 -4.79262 3751 ft 148 kts 227°
2026-05-05 18:19 41.74307 -4.80232 3558 ft 145 kts 226°
2026-05-05 18:19 41.73601 -4.81201 3364 ft 146 kts 227°
2026-05-05 18:19 41.72901 -4.82151 3172 ft 144 kts 225°
2026-05-05 18:20 41.72183 -4.83111 2984 ft 146 kts 227°
2026-05-05 18:20 41.71715 -4.83769 2855 ft 145 kts 227°
2026-05-05 18:20 41.70847 -4.84925 2775 ft 99 kts 224°
2026-05-05 18:20 41.70543 -4.85332 2774 ft 28 kts 224°
2026-05-05 18:21 41.70444 -4.85461 2774 ft 31 kts 226°
2026-05-05 18:21 41.70284 -4.85683 2774 ft 27 kts 225°
2026-05-05 18:21 41.70160 -4.85854 2773 ft 25 kts 226°
2026-05-05 18:21 41.70103 -4.86023 2773 ft 18 kts 286°
2026-05-05 18:22 41.70188 -4.86067 2773 ft 14 kts 34°
2026-05-05 18:22 41.70263 -4.85975 2773 ft 14 kts 44°
2026-05-05 18:22 41.70334 -4.85878 2773 ft 14 kts 46°
2026-05-05 18:22 41.70404 -4.85780 2774 ft 15 kts 45°
2026-05-05 18:23 41.70483 -4.85675 2774 ft 17 kts 45°
2026-05-05 18:23 41.70570 -4.85556 2774 ft 18 kts 45°
2026-05-05 18:23 41.70661 -4.85432 2775 ft 18 kts 45°
2026-05-05 18:23 41.70754 -4.85306 2775 ft 19 kts 46°
2026-05-05 18:24 41.70848 -4.85180 2775 ft 19 kts 45°
2026-05-05 18:24 41.70942 -4.85054 2775 ft 19 kts 45°
2026-05-05 18:24 41.71034 -4.84925 2776 ft 18 kts 68°
2026-05-05 18:24 41.70953 -4.84844 2775 ft 17 kts 167°
2026-05-05 18:25 41.70852 -4.84762 2775 ft 17 kts 136°
2026-05-05 18:25 41.70824 -4.84727 2775 ft 17 kts 136°
2026-05-05 18:25 41.70711 -4.84545 2774 ft 13 kts 84°
2026-05-05 18:25 41.70721 -4.84474 2775 ft 6 kts 146°
2026-05-05 18:26 41.70690 -4.84479 2774 ft 5 kts 255°
2026-05-05 18:26 41.70690 -4.84489 2774 ft 0 kts 268°